AAL69 LEMD-KMIA

Flight info

Callsign AAL69
Flight time N/A
Altitude 36000
Route BARDI DCT INKIT DCT EPOPO DCT ARMED/M084F360 DCT 42N020W/M084F380 40N030W 38N040W 33N050W/M084F400 30N060W 27N070W DCT MILLE/N0479F400 DCT ZQA BR49V NICKO VIICE2
Aircraft B772/H-SDE2E3FGHIJ5LORVWXY/LB1D1

Departure

Time 2026-05-05 23:13
Airport Adolfo Suárez Madrid–Barajas Airport (LEMD)

Arrival

Time N/A
Airport Miami International Airport (KMIA)
Time Latitude Longitude Altitude Speed Heading
2026-05-05 22:32 40.49216 -3.56649 1975 ft 0 kts 269°
2026-05-05 23:04 40.49216 -3.56621 1977 ft 4 kts 269°
2026-05-05 23:04 40.49217 -3.56590 1975 ft 2 kts 270°
2026-05-05 23:04 40.49220 -3.56560 1977 ft 4 kts 236°
2026-05-05 23:05 40.49238 -3.56543 1979 ft 4 kts 181°
2026-05-05 23:05 40.49264 -3.56544 1978 ft 4 kts 179°
2026-05-05 23:05 40.49286 -3.56544 1976 ft 1 kts 179°
2026-05-05 23:08 40.49280 -3.56544 1975 ft 4 kts 179°
2026-05-05 23:08 40.49226 -3.56543 1974 ft 11 kts 179°
2026-05-05 23:08 40.49124 -3.56542 1974 ft 18 kts 179°
2026-05-05 23:09 40.48986 -3.56540 1978 ft 20 kts 179°
2026-05-05 23:09 40.48872 -3.56573 1980 ft 13 kts 231°
2026-05-05 23:09 40.48863 -3.56686 1978 ft 13 kts 268°
2026-05-05 23:09 40.48860 -3.56800 1980 ft 13 kts 268°
2026-05-05 23:10 40.48861 -3.56916 1982 ft 13 kts 271°
2026-05-05 23:10 40.48861 -3.57031 1984 ft 13 kts 270°
2026-05-05 23:10 40.48860 -3.57147 1986 ft 13 kts 270°
2026-05-05 23:10 40.48910 -3.57227 1990 ft 12 kts 351°
2026-05-05 23:11 40.48997 -3.57232 1989 ft 12 kts 343°
2026-05-05 23:11 40.49062 -3.57306 1991 ft 12 kts 315°
2026-05-05 23:11 40.49124 -3.57387 1991 ft 12 kts 316°
2026-05-05 23:11 40.49194 -3.57449 1992 ft 12 kts 350°
2026-05-05 23:12 40.49298 -3.57451 1988 ft 25 kts
2026-05-05 23:12 40.49620 -3.57454 1989 ft 73 kts 360°
2026-05-05 23:12 40.50330 -3.57459 1996 ft 127 kts 359°
2026-05-05 23:12 40.51347 -3.57466 2052 ft 162 kts
2026-05-05 23:13 40.52482 -3.57443 2429 ft 165 kts
2026-05-05 23:13 40.53641 -3.57397 2863 ft 169 kts 357°
2026-05-05 23:13 40.54824 -3.57444 3350 ft 170 kts
2026-05-05 23:13 40.56008 -3.57130 3698 ft 180 kts 16°
2026-05-05 23:14 40.57258 -3.56646 3842 ft 195 kts 15°
2026-05-05 23:14 40.58616 -3.56140 4002 ft 210 kts 15°
2026-05-05 23:14 40.60072 -3.55598 4224 ft 222 kts 14°
2026-05-05 23:14 40.61591 -3.55033 4560 ft 230 kts 14°
2026-05-05 23:15 40.63137 -3.54458 5026 ft 231 kts 14°
2026-05-05 23:15 40.64705 -3.54039 5436 ft 230 kts
2026-05-05 23:15 40.66306 -3.53909 5897 ft 231 kts
2026-05-05 23:15 40.67908 -3.53820 6373 ft 229 kts 355°
2026-05-05 23:16 40.69404 -3.54363 6665 ft 230 kts 325°
2026-05-05 23:16 40.70536 -3.55874 6851 ft 242 kts 301°
2026-05-05 23:16 40.71122 -3.58011 7012 ft 255 kts 282°
2026-05-05 23:16 40.71439 -3.60354 7259 ft 263 kts 275°
2026-05-05 23:17 40.71131 -3.62757 7536 ft 273 kts 244°
2026-05-05 23:17 40.70018 -3.64789 7965 ft 274 kts 232°
2026-05-05 23:17 40.68799 -3.66750 8418 ft 278 kts 233°
2026-05-05 23:17 40.67586 -3.68729 8971 ft 278 kts 232°
2026-05-05 23:18 40.66368 -3.70711 9528 ft 278 kts 232°
2026-05-05 23:18 40.65167 -3.72718 9989 ft 277 kts 238°
2026-05-05 23:18 40.64522 -3.75108 10159 ft 285 kts 266°
2026-05-05 23:18 40.64473 -3.77755 10262 ft 297 kts 269°
2026-05-05 23:19 40.64422 -3.80511 10394 ft 313 kts 268°
2026-05-05 23:19 40.64355 -3.83458 10550 ft 329 kts 269°
2026-05-05 23:19 40.64285 -3.86546 10732 ft 345 kts 269°
2026-05-05 23:19 40.64211 -3.89757 11158 ft 353 kts 268°
2026-05-05 23:20 40.64134 -3.93025 11694 ft 359 kts 268°
2026-05-05 23:20 40.64054 -3.96341 12275 ft 364 kts 269°
2026-05-05 23:20 40.63972 -3.99689 12947 ft 367 kts 269°
2026-05-05 23:20 40.63888 -4.03036 13798 ft 365 kts 268°
2026-05-05 23:21 40.63803 -4.06403 14383 ft 369 kts 269°
2026-05-05 23:21 40.63716 -4.09793 14991 ft 373 kts 269°
2026-05-05 23:21 40.63627 -4.13234 15522 ft 378 kts 269°
2026-05-05 23:21 40.63536 -4.16706 16196 ft 380 kts 269°
2026-05-05 23:22 40.63443 -4.20181 16977 ft 380 kts 269°
2026-05-05 23:22 40.63349 -4.23657 17742 ft 380 kts 269°
2026-05-05 23:22 40.63256 -4.27093 18468 ft 382 kts 269°
2026-05-05 23:22 40.63160 -4.30601 19088 ft 384 kts 269°
2026-05-05 23:23 40.63062 -4.34121 19757 ft 384 kts 269°
2026-05-05 23:23 40.62963 -4.37644 20415 ft 386 kts 269°
2026-05-05 23:23 40.62863 -4.41176 21065 ft 387 kts 269°
2026-05-05 23:23 40.62762 -4.44736 21694 ft 389 kts 269°
2026-05-05 23:24 40.62658 -4.48309 22313 ft 391 kts 268°
2026-05-05 23:24 40.62533 -4.51880 22861 ft 389 kts 265°
2026-05-05 23:24 40.61895 -4.55377 23205 ft 400 kts 251°
2026-05-05 23:24 40.60545 -4.58617 23670 ft 409 kts 239°
2026-05-05 23:25 40.58823 -4.61617 24121 ft 412 kts 237°
2026-05-05 23:25 40.57067 -4.64617 24562 ft 414 kts 237°
2026-05-05 23:25 40.55316 -4.67629 25001 ft 416 kts 237°
2026-05-05 23:25 40.53587 -4.70630 25411 ft 418 kts 237°
2026-05-05 23:26 40.51834 -4.73695 25823 ft 420 kts 237°
2026-05-05 23:26 40.50076 -4.76781 26232 ft 422 kts 237°
2026-05-05 23:26 40.48316 -4.79870 26606 ft 424 kts 237°
2026-05-05 23:26 40.46542 -4.82986 26965 ft 424 kts 238°
2026-05-05 23:27 40.45108 -4.86338 27104 ft 422 kts 253°
2026-05-05 23:27 40.44432 -4.90077 27398 ft 422 kts 264°
2026-05-05 23:27 40.44369 -4.93922 27802 ft 420 kts 275°
2026-05-05 23:27 40.44770 -4.97731 28044 ft 424 kts 278°
2026-05-05 23:28 40.45220 -5.01577 28266 ft 428 kts 278°
2026-05-05 23:28 40.45675 -5.05452 28577 ft 430 kts 278°
2026-05-05 23:28 40.46122 -5.09340 28899 ft 431 kts 277°
2026-05-05 23:28 40.46558 -5.13239 29194 ft 432 kts 277°
2026-05-05 23:29 40.46986 -5.17158 29469 ft 434 kts 277°
2026-05-05 23:29 40.47401 -5.21029 29713 ft 435 kts 277°
2026-05-05 23:29 40.47820 -5.24979 29934 ft 437 kts 277°
2026-05-05 23:29 40.48236 -5.28934 30146 ft 438 kts 277°
2026-05-05 23:30 40.48652 -5.32917 30396 ft 438 kts 277°
2026-05-05 23:30 40.49064 -5.36876 30607 ft 439 kts 277°
2026-05-05 23:30 40.49478 -5.40864 30843 ft 438 kts 277°
2026-05-05 23:30 40.49889 -5.44822 31132 ft 437 kts 277°
2026-05-05 23:31 40.50297 -5.48770 31422 ft 435 kts 277°
2026-05-05 23:31 40.50697 -5.52659 31697 ft 434 kts 276°
2026-05-05 23:31 40.51105 -5.56636 31953 ft 433 kts 276°
2026-05-05 23:31 40.51507 -5.60559 32201 ft 432 kts 276°
2026-05-05 23:32 40.51905 -5.64471 32447 ft 432 kts 276°
2026-05-05 23:32 40.52298 -5.68336 32680 ft 431 kts 276°
2026-05-05 23:32 40.52692 -5.72235 32906 ft 431 kts 276°
2026-05-05 23:32 40.53087 -5.76148 33071 ft 432 kts 276°
2026-05-05 23:33 40.53481 -5.80069 33308 ft 431 kts 276°
2026-05-05 23:33 40.53872 -5.83972 33596 ft 429 kts 276°
2026-05-05 23:33 40.54261 -5.87861 33873 ft 428 kts 276°
2026-05-05 23:33 40.54647 -5.91736 34112 ft 427 kts 276°
2026-05-05 23:34 40.55026 -5.95564 34278 ft 428 kts 276°
2026-05-05 23:34 40.55410 -5.99454 34408 ft 429 kts 276°
2026-05-05 23:34 40.55793 -6.03346 34550 ft 429 kts 276°
2026-05-05 23:34 40.56174 -6.07237 34718 ft 429 kts 276°
2026-05-05 23:35 40.56556 -6.11137 34839 ft 431 kts 276°
2026-05-05 23:35 40.56938 -6.15057 34962 ft 432 kts 276°
2026-05-05 23:35 40.57319 -6.18982 35142 ft 432 kts 276°
2026-05-05 23:35 40.57698 -6.22896 35321 ft 431 kts 276°
2026-05-05 23:36 40.58077 -6.26820 35482 ft 432 kts 276°
2026-05-05 23:36 40.58606 -6.30704 35619 ft 434 kts 285°
2026-05-05 23:36 40.59825 -6.34343 35684 ft 436 kts 296°
2026-05-05 23:36 40.61278 -6.37859 35715 ft 439 kts 295°
2026-05-05 23:37 40.62696 -6.41414 35834 ft 439 kts 294°
2026-05-05 23:37 40.64076 -6.44952 35968 ft 440 kts 294°
2026-05-05 23:37 40.66848 -6.52174 36063 ft 442 kts 294°
2026-05-05 23:38 40.69605 -6.59405 36068 ft 441 kts 294°
2026-05-05 23:38 40.72353 -6.66621 36087 ft 440 kts 294°
2026-05-05 23:39 40.75095 -6.73838 36081 ft 440 kts 294°
2026-05-05 23:39 40.77812 -6.81004 36074 ft 440 kts 294°
2026-05-05 23:40 40.80547 -6.88234 36069 ft 440 kts 294°
2026-05-05 23:40 40.83276 -6.95465 36079 ft 440 kts 294°
2026-05-05 23:41 40.86009 -7.02726 36071 ft 441 kts 294°
2026-05-05 23:41 40.88745 -7.10013 36073 ft 442 kts 294°
2026-05-05 23:42 40.91452 -7.17240 36105 ft 442 kts 294°
2026-05-05 23:42 40.94185 -7.24554 36079 ft 442 kts 294°
2026-05-05 23:43 40.96906 -7.31855 36084 ft 442 kts 294°
2026-05-05 23:43 40.99619 -7.39154 36079 ft 442 kts 294°
2026-05-05 23:44 41.02330 -7.46466 36085 ft 442 kts 294°
2026-05-05 23:44 41.04584 -7.52557 36080 ft 442 kts 294°
2026-05-05 23:45 41.07286 -7.59879 36091 ft 442 kts 294°
2026-05-05 23:45 41.10421 -7.68398 36104 ft 443 kts 294°
2026-05-05 23:46 41.12666 -7.74514 36073 ft 443 kts 294°
2026-05-05 23:46 41.15363 -7.81878 36091 ft 444 kts 294°
2026-05-05 23:47 41.18061 -7.89263 36075 ft 445 kts 294°
2026-05-05 23:47 41.20655 -7.96726 36097 ft 444 kts 292°
2026-05-05 23:48 41.23179 -8.04236 36098 ft 444 kts 292°
2026-05-05 23:48 41.25688 -8.11696 36089 ft 445 kts 292°
2026-05-05 23:49 41.28217 -8.19198 36090 ft 445 kts 292°
2026-05-05 23:49 41.30753 -8.26722 36091 ft 445 kts 292°
2026-05-05 23:50 41.33283 -8.34246 36084 ft 446 kts 292°
2026-05-05 23:50 41.35810 -8.41782 36096 ft 446 kts 293°
2026-05-05 23:51 41.38332 -8.49322 36093 ft 446 kts 292°
2026-05-05 23:51 41.40847 -8.56865 36090 ft 446 kts 292°
2026-05-05 23:52 41.43346 -8.64381 36088 ft 446 kts 292°
2026-05-05 23:52 41.45855 -8.71947 36085 ft 447 kts 293°
2026-05-05 23:53 41.48366 -8.79541 36096 ft 447 kts 293°
2026-05-05 23:53 41.50874 -8.87145 36086 ft 448 kts 293°
2026-05-05 23:54 41.53382 -8.94770 36093 ft 449 kts 293°
2026-05-05 23:54 41.55868 -9.02350 36096 ft 449 kts 293°
2026-05-05 23:55 41.58371 -9.10002 36088 ft 449 kts 293°
2026-05-05 23:55 41.60867 -9.17655 36107 ft 450 kts 293°
2026-05-05 23:56 41.63363 -9.25331 36105 ft 450 kts 293°
2026-05-05 23:56 41.65858 -9.33024 36103 ft 451 kts 293°
2026-05-05 23:57 41.68349 -9.40726 36107 ft 451 kts 293°
2026-05-05 23:57 41.70837 -9.48442 36094 ft 451 kts 293°
2026-05-05 23:58 41.73319 -9.56159 36123 ft 451 kts 293°
2026-05-05 23:58 41.75796 -9.63887 36122 ft 452 kts 293°
2026-05-05 23:59 41.78270 -9.71625 36111 ft 452 kts 293°
2026-05-05 23:59 41.80738 -9.79365 36124 ft 452 kts 293°
2026-05-06 00:00 41.83206 -9.87129 36109 ft 452 kts 293°
2026-05-06 00:00 41.85651 -9.94845 36135 ft 452 kts 293°
2026-05-06 00:01 41.88109 -10.02622 36121 ft 452 kts 293°
2026-05-06 00:01 41.90561 -10.10403 36123 ft 452 kts 293°
2026-05-06 00:02 41.93002 -10.18208 36127 ft 452 kts 291°
2026-05-06 00:02 41.94742 -10.26261 36151 ft 452 kts 283°
2026-05-06 00:03 41.96066 -10.34538 36125 ft 453 kts 283°
2026-05-06 00:03 41.97405 -10.42820 36135 ft 454 kts 283°
2026-05-06 00:04 41.98756 -10.51110 36138 ft 455 kts 283°
2026-05-06 00:04 42.00108 -10.59404 36131 ft 455 kts 283°
2026-05-06 00:05 42.02130 -10.71886 36127 ft 455 kts 283°
2026-05-06 00:06 42.03469 -10.80203 36143 ft 455 kts 283°
2026-05-06 00:06 42.04802 -10.88526 36147 ft 455 kts 283°
2026-05-06 00:07 42.06121 -10.96803 36132 ft 455 kts 283°
2026-05-06 00:07 42.07441 -11.05128 36149 ft 454 kts 283°
2026-05-06 00:08 42.08755 -11.13459 36151 ft 455 kts 283°
2026-05-06 00:08 42.10063 -11.21790 36156 ft 455 kts 283°
2026-05-06 00:09 42.11366 -11.30128 36149 ft 455 kts 283°
2026-05-06 00:09 42.12664 -11.38480 36146 ft 455 kts 283°
2026-05-06 00:10 42.13957 -11.46842 36149 ft 455 kts 283°
2026-05-06 00:10 42.15241 -11.55192 36152 ft 455 kts 283°
2026-05-06 00:11 42.16513 -11.63501 36155 ft 455 kts 283°
2026-05-06 00:11 42.17787 -11.71869 36155 ft 455 kts 283°
2026-05-06 00:12 42.19056 -11.80245 36155 ft 455 kts 282°
2026-05-06 00:12 42.20317 -11.88617 36157 ft 455 kts 282°
2026-05-06 00:13 42.21572 -11.96987 36158 ft 455 kts 282°
2026-05-06 00:13 42.22822 -12.05368 36152 ft 455 kts 282°
2026-05-06 00:14 42.24057 -12.13692 36161 ft 455 kts 282°
2026-05-06 00:14 42.25294 -12.22075 36167 ft 455 kts 282°
2026-05-06 00:15 42.26526 -12.30473 36163 ft 456 kts 282°
2026-05-06 00:15 42.27753 -12.38880 36167 ft 456 kts 282°
2026-05-06 00:16 42.28973 -12.47279 36164 ft 456 kts 282°
2026-05-06 00:16 42.30190 -12.55704 36172 ft 456 kts 282°